Вернуться в каталог

SONATE-2

АктивенЛюбительское радиоPO
NORAD 59112·PAYLOAD·🇩🇪 Germany

Запущен Mar 4, 2024 с Vandenberg Space Force Base

Loading…

Ближайшие Пролёты (ближайшие 24 часа)

TLE

СвежийSource: AMSAT

Эпоха: Sep 14, 2026, 05:48 UTC

1 59112U 24043Q   26257.24223457  .00044891  00000-0  44284-3 0  9993
2 59112  97.5625  53.6316 0005343 228.2755 131.8048 15.65799600141799

Отслеживайте SONATE-2 в реальном времени с AllMySat

Download on the App Store